Location: Cheyres
(46.8153°N, 6.7877°E)
Time: 03:35:53
(UTC+00:00)

Meteor 1-10 Rocket - Pass Details

Date: 11 May 2021
Orbit: 837 x 909 km, 81.3° (Epoch: 18 June)

Event Time Altitude Azimuth Distance (km) Brightness Sun altitude
Exits shadow 21:05:34 22° 181° (S) 1,780 5.4 -17.5°
Maximum altitude 21:09:19 77° 98° (E) 876 4.1 -17.8°
Drops below altitude 10° 21:15:00 10° 14° (NNE) 2,509 7.2 -18.4°
Sets 21:17:27 0° 13° (NNE) 3,462 8.1 -18.6°
